This demonstration page uses our WeatherBlox Daily Observations layout. Learn more.

Left ArrowRight Arrow

Hourly Observations for September 15, 2015

Temp ( °F °C ) Dew Point ( °F °C ) Humidity (%) Winds ( mph kmh ) Pressure ( in mb ) Visibility ( mi km ) Precip ( " mm )
12:53 am 00:53 Cloudy 68 20 57 13.9 68 68 undefined N/A 29.72 1007 10 16 0.00 0.00
1:53 am 01:53 Cloudy 68 20 57 13.9 68 68 SSW 8 13 29.72 1007 10 16 0.00 0.00
2:53 am 02:53 Cloudy 68 20 56 13.3 65 65 SSW 8 13 29.74 1007 10 16 0.00 0.00
3:53 am 03:53 Cloudy 67 19.4 56 13.3 68 68 SSW 10 17 29.75 1007 10 16 0.00 0.00
4:53 am 04:53 Cloudy 65 18.3 55 12.8 70 70 S 9 15 29.75 1007 10 16 0.00 0.00
5:53 am 05:53 Cloudy 63 17.2 56 13.3 78 78 SW 6 9 29.76 1008 10 16 0.00 0.00
6:53 am 06:53 Mostly Cloudy 62 16.7 56 13.3 80 80 WSW 3 6 29.78 1008 10 16 0.00 0.00
7:53 am 07:53 Cloudy 62 16.7 55 12.8 78 78 WNW 3 6 29.80 1009 10 16 0.00 0.00
8:12 am 08:12 Mostly Cloudy 63 17 55 13 77 77 WSW 5 7 29.80 1009 10 16 0.00 0.00
8:53 am 08:53 Cloudy 63 17.2 56 13.3 78 78 SW 8 13 29.80 1009 10 16 0.00 0.00
9:53 am 09:53 Cloudy 66 18.9 55 12.8 68 68 SSW 10 17 29.81 1009 10 16 0.00 0.00
10:53 am 10:53 Cloudy 66 18.9 55 12.8 68 68 S 9 15 29.81 1010 10 16 0.00 0.00
11:40 am 11:40 Mostly Cloudy 68 20 55 13 64 64 SSE 8 13 29.83 1010 10 16 0.00 0.00
11:53 am 11:53 Mostly Cloudy 68 20 55 12.8 63 63 SSE 9 15 29.81 1009 10 16 0.00 0.00
12:30 pm 12:30 Mostly Cloudy 70 21 55 13 60 60 SE 12 19 29.83 1010 9 14 0.00 0.00
12:53 pm 12:53 Mostly Cloudy 69 20.6 54 12.2 59 59 SSE 13 20 29.80 1009 9 14 0.00 0.00
1:53 pm 13:53 Mostly Cloudy 71 21.7 54 12.2 55 55 S 12 19 29.80 1009 9 14 0.00 0.00
2:00 pm 14:00 Partly Cloudy 70 21 54 12 57 57 SSE 12 19 29.83 1010 8 13 0.00 0.00
2:53 pm 14:53 Sunny 70 21.1 52 11.1 53 53 SSE 9 15 29.80 1009 10 16 0.00 0.00
3:53 pm 15:53 Sunny 70 21.1 55 12.8 59 59 SSE 10 17 29.78 1009 9 14 0.00 0.00
4:53 pm 16:53 Sunny 71 21.7 54 12.2 55 55 S 9 15 29.78 1009 10 16 0.00 0.00
5:53 pm 17:53 Cloudy 70 21.1 55 12.8 59 59 SSE 5 7 29.78 1008 8 13 0.00 0.00
6:53 pm 18:53 Mostly Cloudy 69 20.6 55 12.8 61 61 SSE 3 6 29.78 1008 7 11 0.00 0.00
7:53 pm 19:53 Cloudy 68 20 56 13.3 65 65 SSE 6 9 29.78 1008 10 16 0.00 0.00
8:53 pm 20:53 Mostly Cloudy with Nearby Thunderstorms 67 19.4 41 5 39 39 S 16 26 29.79 1009 10 16 0.00 0.00
9:53 pm 21:53 Mostly Cloudy with Nearby Thunderstorms 67 19.4 39 3.9 36 36 undefined N/A 29.80 1009 10 16 0.00 0.00
10:53 pm 22:53 Mostly Cloudy with Nearby Thunderstorms 64 17.8 41 5 43 43 NW 6 9 29.80 1009 10 16 0.00 0.00
11:53 pm 23:53 Clear with Nearby Thunderstorms 62 16.7 41 5 46 46 ENE 3 6 29.81 1010 10 16 0.00 0.00

Powered by AerisWeather